When you browse on this site, cookies collect data to enhance your experience and personalize the content and advertising you see.
Visit our Privacy Policy to learn more. By continuing to use the site, you agree to this use of cookies and data.
  • In Österreich
  • Länderverzeichnis
  • Für 7 Tage
  • Wassertemperatur
  • Wetterkarte
  • News
  • Widgets
  • user-avatar
    Anmelden

    Stündliche Wetter Sucre

    Heute, 23 November, Samstag

    Zeit Temperatur Niederschläge Wind Luftdruck Luftfeuchtigkeit
    00:00 +18°C° 0.1 mm 0 m/S 654 mmHg 95%
    01:00 +18°C° 0.1 mm 0 m/S 654 mmHg 95%
    02:00 +18°C° 0.1 mm 0 m/S 654 mmHg 95%
    03:00 +18°C° 0.1 mm 0 m/S 653 mmHg 96%
    04:00 +18°C° 0.1 mm 0 m/S 653 mmHg 96%
    05:00 +18°C° 0.1 mm 0 m/S 654 mmHg 95%
    06:00 +18°C° 0.1 mm 0 m/S 654 mmHg 94%
    07:00 +18°C° 0.1 mm 0 m/S 654 mmHg 94%
    08:00 +20°C° 0.1 mm 0 m/S 655 mmHg 89%
    09:00 +23°C° 0.1 mm 1 m/S 656 mmHg 85%
    10:00 +24°C° 0.1 mm 1 m/S 656 mmHg 80%
    11:00 +25°C° 0.5 mm 1 m/S 656 mmHg 79%
    12:00 +25°C° 0.5 mm 1 m/S 655 mmHg 79%
    13:00 +25°C° 0.5 mm 1 m/S 654 mmHg 78%
    14:00 +25°C° 1 mm 1 m/S 654 mmHg 82%
    15:00 +24°C° 1 mm 1 m/S 653 mmHg 85%
    16:00 +24°C° 1 mm 1 m/S 653 mmHg 89%
    17:00 +23°C° 0.8 mm 1 m/S 653 mmHg 91%
    18:00 +20°C° 0.8 mm 0 m/S 653 mmHg 93%
    19:00 +19°C° 0.8 mm 0 m/S 654 mmHg 95%
    20:00 +19°C° 0.2 mm 0 m/S 654 mmHg 95%
    21:00 +19°C° 0.2 mm 0 m/S 654 mmHg 95%
    22:00 +18°C° 0.2 mm 0 m/S 655 mmHg 95%
    23:00 +18°C° 0.1 mm 0 m/S 655 mmHg 95%

    Morgen, 24 November, Sonntag

    Zeit Temperatur Niederschläge Wind Luftdruck Luftfeuchtigkeit
    00:00 +18°C° 0.1 mm 0 m/S 654 mmHg 96%
    01:00 +18°C° 0.1 mm 0 m/S 654 mmHg 96%
    02:00 +17°C° 0 mm 0 m/S 653 mmHg 96%
    03:00 +17°C° 0 mm 0 m/S 653 mmHg 96%
    04:00 +17°C° 0 mm 0 m/S 653 mmHg 96%
    05:00 +18°C° 0 mm 0 m/S 653 mmHg 95%
    06:00 +18°C° 0 mm 0 m/S 654 mmHg 94%
    07:00 +18°C° 0 mm 0 m/S 655 mmHg 94%
    08:00 +20°C° 0.1 mm 0 m/S 655 mmHg 89%
    09:00 +21°C° 0.1 mm 0 m/S 656 mmHg 85%
    10:00 +25°C° 0.1 mm 1 m/S 656 mmHg 80%
    11:00 +25°C° 0.5 mm 1 m/S 656 mmHg 79%
    12:00 +26°C° 0.5 mm 1 m/S 655 mmHg 79%
    13:00 +26°C° 0.5 mm 1 m/S 654 mmHg 78%
    14:00 +25°C° 1.3 mm 1 m/S 654 mmHg 82%
    15:00 +25°C° 1.3 mm 1 m/S 653 mmHg 85%
    16:00 +24°C° 1.3 mm 1 m/S 653 mmHg 88%
    17:00 +23°C° 1.1 mm 1 m/S 653 mmHg 91%
    18:00 +20°C° 1.1 mm 0 m/S 653 mmHg 93%
    19:00 +19°C° 1.1 mm 0 m/S 653 mmHg 96%
    20:00 +19°C° 0.2 mm 0 m/S 654 mmHg 96%
    21:00 +19°C° 0.2 mm 0 m/S 654 mmHg 96%
    22:00 +19°C° 0.2 mm 0 m/S 655 mmHg 96%
    23:00 +18°C° 0 mm 0 m/S 654 mmHg 96%

    übermorgen, 25 November, Montag

    Zeit Temperatur Niederschläge Wind Luftdruck Luftfeuchtigkeit
    00:00 +18°C° 0 mm 0 m/S 654 mmHg 96%
    01:00 +18°C° 0 mm 0 m/S 653 mmHg 96%
    02:00 +17°C° 0 mm 0 m/S 653 mmHg 96%
    03:00 +17°C° 0 mm 0 m/S 652 mmHg 95%
    04:00 +17°C° 0 mm 0 m/S 652 mmHg 95%
    05:00 +17°C° 0 mm 0 m/S 653 mmHg 95%
    06:00 +18°C° 0 mm 0 m/S 653 mmHg 94%
    07:00 +18°C° 0 mm 0 m/S 653 mmHg 93%
    08:00 +20°C° 0 mm 0 m/S 654 mmHg 86%
    09:00 +24°C° 0 mm 1 m/S 655 mmHg 79%
    10:00 +26°C° 0 mm 1 m/S 655 mmHg 71%
    11:00 +27°C° 0.2 mm 1 m/S 655 mmHg 70%
    12:00 +27°C° 0.2 mm 1 m/S 654 mmHg 68%
    13:00 +28°C° 0.2 mm 1 m/S 653 mmHg 67%
    14:00 +27°C° 0.8 mm 1 m/S 653 mmHg 73%
    15:00 +26°C° 0.8 mm 1 m/S 652 mmHg 79%
    16:00 +25°C° 0.8 mm 1 m/S 652 mmHg 85%
    17:00 +24°C° 1 mm 1 m/S 652 mmHg 88%
    18:00 +23°C° 1 mm 1 m/S 652 mmHg 91%
    19:00 +21°C° 1 mm 1 m/S 652 mmHg 95%
    20:00 +21°C° 0.3 mm 1 m/S 653 mmHg 95%
    21:00 +21°C° 0.3 mm 1 m/S 653 mmHg 94%
    22:00 +20°C° 0.3 mm 1 m/S 653 mmHg 94%
    23:00 +20°C° 0 mm 1 m/S 653 mmHg 94%

    26 November, Dienstag

    Zeit Temperatur Niederschläge Wind Luftdruck Luftfeuchtigkeit
    00:00 +20°C° 0 mm 1 m/S 653 mmHg 94%
    01:00 +18°C° 0 mm 0 m/S 652 mmHg 94%
    02:00 +18°C° 0 mm 0 m/S 652 mmHg 94%
    03:00 +18°C° 0 mm 0 m/S 652 mmHg 94%
    04:00 +18°C° 0 mm 0 m/S 652 mmHg 94%
    05:00 +18°C° 0 mm 0 m/S 653 mmHg 93%
    06:00 +18°C° 0 mm 0 m/S 653 mmHg 92%
    07:00 +19°C° 0 mm 0 m/S 654 mmHg 91%
    08:00 +20°C° 0.1 mm 0 m/S 654 mmHg 88%
    09:00 +21°C° 0.1 mm 0 m/S 655 mmHg 85%
    10:00 +23°C° 0.1 mm 0 m/S 655 mmHg 82%
    11:00 +26°C° 0.7 mm 1 m/S 655 mmHg 79%
    12:00 +27°C° 0.7 mm 1 m/S 654 mmHg 76%
    13:00 +28°C° 0.7 mm 1 m/S 654 mmHg 73%
    14:00 +27°C° 1.5 mm 1 m/S 653 mmHg 76%
    15:00 +27°C° 1.5 mm 1 m/S 653 mmHg 79%
    16:00 +26°C° 1.5 mm 1 m/S 652 mmHg 81%
    17:00 +24°C° 1 mm 1 m/S 652 mmHg 86%
    18:00 +23°C° 1 mm 1 m/S 652 mmHg 90%
    19:00 +21°C° 1 mm 1 m/S 652 mmHg 94%
    20:00 +21°C° 0.3 mm 1 m/S 653 mmHg 94%
    21:00 +20°C° 0.3 mm 1 m/S 653 mmHg 94%
    22:00 +20°C° 0.3 mm 1 m/S 654 mmHg 94%
    23:00 +20°C° 0.1 mm 1 m/S 653 mmHg 94%

    27 November, Mittwoch

    Zeit Temperatur Niederschläge Wind Luftdruck Luftfeuchtigkeit
    00:00 +20°C° 0.1 mm 1 m/S 653 mmHg 94%
    01:00 +19°C° 0.1 mm 1 m/S 653 mmHg 94%
    02:00 +19°C° 0 mm 1 m/S 652 mmHg 94%
    03:00 +19°C° 0 mm 1 m/S 652 mmHg 93%
    04:00 +19°C° 0 mm 1 m/S 652 mmHg 93%
    05:00 +20°C° 0 mm 1 m/S 653 mmHg 91%
    06:00 +20°C° 0 mm 1 m/S 653 mmHg 90%
    07:00 +21°C° 0 mm 1 m/S 654 mmHg 88%
    08:00 +23°C° 0 mm 1 m/S 654 mmHg 81%
    09:00 +25°C° 0 mm 1 m/S 655 mmHg 74%
    10:00 +27°C° 0 mm 1 m/S 656 mmHg 66%
    11:00 +28°C° 0.1 mm 1 m/S 655 mmHg 63%
    12:00 +29°C° 0.1 mm 1 m/S 655 mmHg 60%
    13:00 +30°C° 0.1 mm 1 m/S 654 mmHg 56%
    14:00 +28°C° 1 mm 1 m/S 654 mmHg 66%
    15:00 +27°C° 1 mm 1 m/S 653 mmHg 75%
    16:00 +26°C° 1 mm 1 m/S 652 mmHg 85%
    17:00 +24°C° 1.1 mm 1 m/S 653 mmHg 88%
    18:00 +23°C° 1.1 mm 1 m/S 653 mmHg 91%
    19:00 +21°C° 1.1 mm 1 m/S 653 mmHg 94%
    20:00 +21°C° 0.4 mm 1 m/S 653 mmHg 94%
    21:00 +20°C° 0.4 mm 1 m/S 654 mmHg 94%
    22:00 +20°C° 0.4 mm 1 m/S 654 mmHg 94%
    23:00 +20°C° 0.1 mm 1 m/S 654 mmHg 93%

    28 November, Donnerstag

    Zeit Temperatur Niederschläge Wind Luftdruck Luftfeuchtigkeit
    00:00 +20°C° 0.1 mm 1 m/S 653 mmHg 93%
    01:00 +19°C° 0.1 mm 1 m/S 653 mmHg 93%
    02:00 +19°C° 0 mm 1 m/S 653 mmHg 93%
    03:00 +19°C° 0 mm 1 m/S 652 mmHg 93%
    04:00 +19°C° 0 mm 1 m/S 652 mmHg 93%
    05:00 +18°C° 0 mm 0 m/S 653 mmHg 91%
    06:00 +18°C° 0 mm 0 m/S 653 mmHg 90%
    07:00 +19°C° 0 mm 0 m/S 654 mmHg 89%
    08:00 +21°C° 0 mm 0 m/S 654 mmHg 82%
    09:00 +25°C° 0 mm 1 m/S 655 mmHg 76%
    10:00 +27°C° 0 mm 1 m/S 656 mmHg 70%
    11:00 +27°C° 0.4 mm 1 m/S 655 mmHg 69%
    12:00 +28°C° 0.4 mm 1 m/S 655 mmHg 67%
    13:00 +28°C° 0.4 mm 1 m/S 654 mmHg 66%
    14:00 +27°C° 1 mm 1 m/S 654 mmHg 72%
    15:00 +26°C° 1 mm 1 m/S 653 mmHg 77%
    16:00 +26°C° 1 mm 1 m/S 652 mmHg 83%
    17:00 +24°C° 1.3 mm 1 m/S 653 mmHg 87%
    18:00 +23°C° 1.3 mm 1 m/S 653 mmHg 91%
    19:00 +21°C° 1.3 mm 1 m/S 653 mmHg 94%
    20:00 +21°C° 0.5 mm 1 m/S 653 mmHg 94%
    21:00 +20°C° 0.5 mm 1 m/S 653 mmHg 94%
    22:00 +20°C° 0.5 mm 1 m/S 654 mmHg 93%
    23:00 +20°C° 0.1 mm 1 m/S 653 mmHg 93%
    Mehr zeigen